SB KEPS @ AMSAT $ORB07342.N 2Line Orbital Elements 07342.AMSAT
HR AMSAT ORBITAL ELEMENTS FOR AMATEUR SATELLITES IN NASA FORMAT FROM WA5QGD FORT WORTH,TX December 8, 2007 Send Subscribe/unsubscribe to KEPS at http://www.amsat.org/mailman/listinfo/keps BID: ORB07342.N
DECODE 2-LINE ELSETS WITH THE FOLLOWING KEY: 1 AAAAAU 00 0 0 BBBBB.BBBBBBBB .CCCCCCCC 00000-0 00000-0 0 DDDZ 2 AAAAA EEE.EEEE FFF.FFFF GGGGGGG HHH.HHHH III.IIII JJ.JJJJJJJJKKKKKZ KEY: A-CATALOGNUM B-EPOCHTIME C-DECAY D-ELSETNUM E-INCLINATION F-RAAN G-ECCENTRICITY H-ARGPERIGEE I-MNANOM J-MNMOTION K-ORBITNUM Z-CHECKSUM
TO ALL RADIO AMATEURS BT
PO-63 1 29712U 07001D 07342.49335013 .00000516 00000-0 75233-4 0 9832 2 29712 097.9031 039.0619 0013084 285.3802 074.5966 14.79928448 49112 VO-52 1 28650U 05017B 07342.38023839 .00000354 00000-0 51651-4 0 7987 2 28650 097.8155 049.0254 0028007 047.8838 312.4735 14.81393287140205 AO-40 1 26609U 00072B 07339.52928811 -.00000099 00000-0 10000-3 0 09779 2 26609 007.0899 108.3144 7931918 029.3281 357.6125 01.25583743032598 SO-33 1 25509U 98061B 07342.24746774 .00000215 00000-0 30278-4 0 816 2 25509 031.4304 321.6177 0354834 149.1309 213.0695 14.28188883476159 FO-29 1 24278U 96046B 07341.84498046 .00000030 00000-0 67773-4 0 6529 2 24278 098.5765 278.3511 0350909 353.5956 006.0756 13.52935420558381 RS-15 1 23439U 94085A 07342.43949868 -.00000039 00000-0 10000-3 0 790 2 23439 064.8146 085.1212 0153679 159.0958 201.6338 11.27552896533346 UO-11 1 14781U 84021B 07341.99371871 .00000339 00000-0 52511-4 0 5399 2 14781 098.1762 007.9238 0008987 339.3615 020.7217 14.79600938275434 AO-10 1 14129U 83058B 07338.04898995 .00000026 00000-0 10000-3 0 4496 2 14129 025.9721 242.7356 6047754 078.4945 339.9606 02.05869203184064 AO-07 1 07530U 74089B 07342.51864179 -.00000028 00000-0 10000-3 0 479 2 07530 101.4932 015.2514 0011846 276.6465 083.3262 12.53572922512966 LIBERT 1 31129U 07012N 07342.18608397 .00000337 00000-0 89029-4 0 5715 2 31129 098.0655 048.5284 0101789 207.9059 151.6629 14.51982024 34058 CP3 1 31128U 07012M 07341.71791219 -.00000048 00000-0 00000 0 0 1991 2 31128 098.0656 048.0555 0102614 209.3895 150.1511 14.51890936 34005 CP4 1 31122U 07012F 07342.10213362 .00000549 00000-0 13192-3 0 2049 2 31122 098.0665 049.5981 0085486 204.8831 154.8217 14.55059039 34149 NO-61 1 29664U 06055F 07342.20265905 .00242895 43761-4 15490-3 0 6936 2 29664 051.6237 244.0721 0001150 302.5260 057.5656 16.17044788 56010 HO-59 1 29484U 06041F 07342.16956974 .00046381 32263-5 23462-3 0 9264 2 29484 098.2619 060.0483 0155705 355.8540 004.1442 15.66161285 68165 CO-56 1 28941U 06005C 07342.30095895 .00019450 24840-5 17818-3 0 6908 2 28941 098.1131 063.4845 0201026 013.5530 347.1089 15.46872729100281 AO-51 1 28375U 04025K 07342.14149810 .00000021 00000-0 19107-4 0 9760 2 28375 098.0919 012.3137 0085119 015.6540 344.7250 14.40589631180752 CO-57 1 27848U 03031J 07341.56045895 .00000043 00000-0 40729-4 0 1392 2 27848 098.7184 346.6360 0009676 319.5372 040.5104 14.20361448230062 CO-55 1 27844U 03031E 07342.22186524 .00000054 00000-0 45503-4 0 1833 2 27844 098.7193 348.1483 0009480 314.8002 045.2413 14.20547316230180 SO-50 1 27607U 02058C 07342.26579590 -.00000095 00000-0 74310-5 0 4749 2 27607 064.5587 276.4668 0073958 318.1630 041.3806 14.71307764266738 NO-44 1 26931U 01043C 07341.74299942 .00000059 00000-0 55565-4 0 7509 2 26931 067.0527 060.4095 0005085 254.1738 105.8807 14.29504684322900 MO-46 1 26548U 00057D 07341.33540214 .00000004 00000-0 18266-4 0 9669 2 26548 064.5592 006.9839 0006364 349.8263 010.2699 14.83204241389216 GO-32 1 25397U 98043D 07342.10139289 -.00000114 00000-0 -32059-4 0 4704 2 25397 098.3927 021.4962 0002158 079.8706 280.2732 14.23134242488890 PO-28 1 22829U 93061G 07341.91755873 .00000020 00000-0 23920-4 0 8195 2 22829 098.3375 306.5805 0010762 079.3118 280.9263 14.30174330740649 IO-26 1 22826U 93061D 07341.76675590 .00000020 00000-0 23950-4 0 5440 2 22826 098.3504 305.2976 0009807 103.6521 256.5746 14.29471996740373 AO-27 1 22825U 93061C 07342.37943165 -.00000124 00000-0 -32536-4 0 8454 2 22825 098.3575 304.8885 0009341 105.6905 254.5311 14.29224035740371 LO-19 1 20442U 90005G 07341.76183275 -.00000028 00000-0 46963-5 0 1211 2 20442 098.1883 335.9334 0012513 032.6295 327.5645 14.32017229933536 AO-16 1 20439U 90005D 07340.56437229 .00000018 00000-0 21763-4 0 01976 2 20439 098.2109 325.7519 0011781 036.8324 323.3678 14.31777705933217 NOAA-18 1 28654U 05018A 07342.39960606 .00000251 00000-0 16373-3 0 2268 2 28654 098.8482 280.8975 0014972 133.6996 226.5431 14.11117697131427 NOAA-17 1 27453U 02032A 07342.43479420 .00000177 00000-0 95878-4 0 7104 2 27453 098.5632 047.3885 0010986 309.7444 050.2779 14.23931269283515 NOAA-16 1 26536U 00055A 07342.30991926 -.00000130 00000-0 -45135-4 0 7140 2 26536 099.1385 322.4702 0011197 047.6057 312.6073 14.12459820371680 OKEAN-0 1 25860U 99039A 07342.07683068 .00000053 00000-0 15352-4 0 2312 2 25860 097.7382 336.2783 0001274 105.5367 254.5978 14.73489343451109 FENGYUN1 1 25730U 99025A 07342.57346098 .00000277 00000-0 18884-3 0 2867 2 25730 098.7075 319.9937 0021064 351.2191 008.8605 14.07648339442003 RESURS 1 25394U 98043A 07341.74482958 -.00000029 00000-0 52579-5 0 8027 2 25394 098.4147 029.1912 0002387 050.7366 309.4025 14.24149860489057 NOAA-15 1 25338U 98030A 07342.41721851 .00000045 00000-0 37872-4 0 2685 2 25338 098.5426 334.2940 0009770 238.5760 121.4467 14.24675893497493 SICH-1 1 23657U 95046A 07342.40724053 .00000277 00000-0 32069-4 0 2452 2 23657 082.5272 274.9479 0025340 033.8937 326.3894 14.81532549661820 NOAA-14 1 23455U 94089A 07342.39682037 .00000070 00000-0 60932-4 0 9286 2 23455 098.9722 049.3352 0008965 331.7533 028.3196 14.13730403667258 OKEAN-4 1 23317U 94066A 07342.11174489 .00000056 00000-0 39650-5 0 4457 2 23317 082.5366 134.2858 0023506 043.1805 317.1253 14.82556723709827 MET-2/21 1 22782U 93055A 07342.28654356 -.00000015 00000-0 -27067-4 0 50 2 22782 082.5476 263.7895 0023994 106.7178 253.6621 13.83621943720590 MET-3/5 1 21655U 91056A 07341.83872435 .00000051 00000-0 10000-3 0 3595 2 21655 082.5560 240.2474 0014121 130.3209 229.9149 13.17013026784264 NOAA-12 1 21263U 91032A 07342.37409366 .00000141 00000-0 78441-4 0 4565 2 21263 098.7613 339.4048 0012008 326.3794 033.6624 14.25506913861067 NOAA-11 1 19531U 88089A 07342.31079917 .00000045 00000-0 46325-4 0 9516 2 19531 098.8075 069.2684 0010819 255.3687 104.6334 14.14857448990777 NOAA-10 1 16969U 86073A 07342.36241024 .00000107 00000-0 61733-4 0 9209 2 16969 098.7378 359.5800 0012885 023.6019 336.5755 14.27343855104078 CAPE1 1 31130U 07012P 07341.78382675 -.00000139 00000-0 -21263-4 0 1815 2 31130 098.0663 048.1232 0102057 209.2962 150.2479 14.51908358 33803 MAST 1 31126U 07012K 07341.54501429 .00000126 00000-0 39515-4 0 2010 2 31126 098.0661 048.4389 0094452 208.3282 151.2760 14.53382376 34034 FALCON 1 30776U 07006E 07342.12225482 .00000252 00000-0 21520-4 0 1993 2 30776 035.4339 238.1706 0000542 217.2310 142.8369 15.02815435 41233 FCAL 1 29667U 06055J 07342.24935580 .00027039 11564-4 71796-4 0 5664 2 29667 051.6320 256.8650 0008105 315.7021 044.3339 15.96119934 55727 NCUBE2 1 28897U 05043H 07341.68568428 .00000142 00000-0 39396-4 0 4219 2 28897 098.1145 234.9150 0016592 295.0398 064.9079 14.59778599104685 CO-58 1 28895U 05043F 07342.38445782 .00000041 00000-0 18403-4 0 8928 2 28895 098.1157 235.6555 0016908 289.8669 070.0733 14.59611684112502 UWE-1 1 28892U 05043C 07341.72553479 .00000034 00000-0 16862-4 0 9172 2 28892 098.1130 234.7310 0016585 292.8572 067.0865 14.59568917112521 OO-38 1 26063U 00004C 07342.24217371 -.00000020 00000-0 13390-4 0 796 2 26063 100.2196 016.9658 0037163 030.4493 329.8836 14.35821795412029 ISS 1 25544U 98067A 07342.42515321 .00019413 00000-0 11984-3 0 4785 2 25544 051.6397 285.5467 0000509 304.8744 155.0484 15.77161320518266 PO-34 1 25520U 98064B 07342.24548563 .00000411 00000-0 10497-4 0 8837 2 25520 028.4603 023.7146 0004935 352.2459 007.8056 15.17093696503981 UARS 1 21701U 91063B 07341.88562441 .00002795 00000-0 49530-4 0 2354 2 21701 056.9746 279.2859 0091262 164.3886 196.0024 15.49804959892665 HUBBLE 1 20580U 90037B 07341.83391998 .00000307 00000-0 10942-4 0 226 2 20580 028.4664 137.7282 0003775 140.1147 219.9725 15.00310668766067 /EX
participants (1)
-
Ray Hoad